Location: G�ndlingen
(48.0142°N, 7.6396°E)
Time: 07:34:52
(UTC+00:00)

APEX - Pass Details

Date: 05 July 2020
Orbit: 333 x 1108 km, 69.9° (Epoch: 05 August)

Event Time Altitude Azimuth Distance (km) Brightness Sun altitude
Rises 23:38:03 0° 327° (NNW) 2,135 7.3 -19.3°
Reaches altitude 10° 23:40:01 10° 323° (NW) 1,279 5.9 -19.3°
Enters shadow 23:42:01 40° 296° (WNW) 515 3.3 -19.3°
